Temp
9 10 10 11 13 12 12 13 12 13 14 15 14 14 14 14 14 15 16 17 17 18 19 20 20 19 19 24 28 28 28 29 28 28 30 32 32 32 31 32 32 30 30 30 30 30 30
9 10 11 12 13 13 13 13 13 13 15 15 15 14 14 14 15 16 17 18 18 19 20 20 20 19 19 25 28 29 29 29 31 31 32 32 32 32 32 32 31 31 31 30 30 30 30
10 11 11 12 13 13 13 13 14 15 15 15 15 14 14 15 15 16 17 18 19 20 20 20 20 18 24 28 29 29 29 29 30 30 31 31 32 32 32 30 32 31 30 30 30 30 30
11 12 11 12 13 13 13 14 15 15 15 15 15 15 15 15 16 17 18 19 19 20 20 20 21 18 25 28 28 28 29 30 30 30 30 30 31 31 31 31 31 30 30 29 30 30 30
11 12 12 12 13 13 13 14 15 15 15 15 15 15 16 16 17 18 19 19 20 20 20 21 20 22 27 27 28 29 29 30 30 30 30 30 30 31 30 29 29 30 29 29 29 31 30
11 12 12 13 13 13 14 15 15 16 16 16 16 16 16 17 18 18 19 20 20 20 21 19 23 26 28 29 29 28 29 29 30 30 30 30 30 30 30 30 27 28 30 30 29 29 29
11 12 12 13 13 13 14 15 16 16 16 17 17 17 17 18 18 19 19 19 23 23 25 27 28 28 29 29 28 29 29 29 30 30 28 30 29 29 29 29 29 29 29 29 30 29 28
11 12 12 13 13 13 14 15 16 16 16 17 17 17 18 18 19 19 19 24 26 26 26 28 28 28 28 29 28 29 29 29 29 28 30 29 28 28 29 29 29 29 28 29 29 29 27
12 12 12 13 13 14 14 15 17 17 17 18 18 19 19 19 19 19 21 24 24 24 27 27 28 28 28 29 28 28 29 30 29 29 29 27 27 28 28 28 28 29 28 27 26 28 29
12 13 13 13 13 14 14 16 17 17 18 19 19 19 19 19 19 23 24 23 23 23 26 25 27 28 28 29 27 29 29 28 29 29 29 28 28 27 28 27 27 27 27 26 26 26 26
12 13 13 13 13 14 15 16 17 18 18 18 19 20 19 20 19 25 23 23 23 24 23 26 27 28 29 28 28 28 29 29 28 28 28 27 27 27 27 26 26 26 26 26 26 26 27
12 13 13 13 13 14 14 16 18 18 19 19 20 20 20 20 21 22 22 22 23 23 23 25 28 27 27 28 28 28 28 29 29 28 28 27 28 27 26 26 26 26 26 27 27 26 24
12 13 13 13 13 14 14 16 18 18 19 20 19 20 20 21 22 21 21 24 23 23 27 26 26 27 27 26 27 28 27 27 27 26 26 27 26 26 26 26 27 27 26 24 22 23 23
12 13 12 13 13 14 15 16 18 18 19 19 19 20 19 20 20 21 22 24 23 26 27 28 27 27 26 27 26 27 27 26 26 26 27 26 23 26 26 25 24 26 25 22 21 21 22
12 13 13 13 13 14 15 16 17 18 19 19 19 19 20 19 19 20 23 23 25 26 27 27 27 26 25 26 26 26 26 25 24 25 25 25 24 25 25 25 25 25 24 24 23 19 20
12 13 13 13 13 14 15 16 17 18 18 19 20 21 22 21 19 20 23 22 26 27 28 27 26 27 26 26 26 26 25 24 24 24 25 24 24 25 25 25 25 25 25 22 22 20 21
12 13 13 13 13 14 15 16 17 17 18 19 20 22 19 21 20 23 23 24 25 26 27 27 27 26 27 26 26 26 25 24 24 24 25 24 24 24 25 24 24 24 24 23 24 22 20
12 13 13 13 13 14 15 16 17 18 18 18 22 21 19 21 22 24 24 26 20 25 25 26 27 27 26 26 25 25 24 23 23 24 23 22 23 21 24 24 24 24 23 23 19 20 20
12 12 13 13 13 14 15 15 17 18 19 20 23 22 20 21 22 22 24 25 26 25 25 25 25 26 26 25 23 24 22 22 23 22 21 22 22 21 22 23 23 23 24 23 21 18 17
12 12 13 13 14 14 15 16 17 18 18 18 24 21 22 22 24 24 24 23 23 24 24 25 25 25 25 24 25 23 21 21 21 20 16 19 23 22 20 22 23 22 23 23 22 18 18
12 12 13 14 13 14 15 16 17 18 18 18 24 23 23 21 23 25 25 25 24 23 24 25 24 25 24 23 23 23 23 21 21 16 20 21 20 21 21 22 22 22 22 22 21 21 19
12 12 13 13 14 14 15 16 17 18 19 19 23 23 23 24 24 24 21 25 25 25 24 24 24 25 25 22 23 23 23 23 22 21 21 21 18 17 18 22 21 20 20 20 21 22 22
12 12 13 13 13 14 15 16 17 18 19 23 22 22 24 19 23 23 23 24 25 24 23 25 25 24 20 22 21 22 22 22 22 21 20 19 18 16 16 16 16 15 18 21 21 21 21
11 12 12 13 13 14 15 16 17 18 19 19 20 23 20 20 23 23 24 25 25 23 23 24 24 20 21 22 21 21 20 20 21 20 21 16 16 13 14 13 15 20 22 22 20 21 21
11 12 12 13 13 14 14 15 17 18 18 19 19 21 19 13 22 23 23 24 23 23 23 21 20 21 22 21 18 16 15 12 15 19 19 19 15 13 14 16 18 19 20 19 18 17 20
11 11 12 12 13 13 14 15 16 17 17 17 17 18 20 14 19 24 23 23 21 21 19 18 19 20 21 17 14 14 17 20 18 17 17 17 16 15 13 12 14 19 20 19 19 16 17
10 11 11 12 12 13 13 14 15 16 17 18 16 17 20 19 21 21 22 21 22 21 19 18 18 17 20 14 12 15 18 20 18 15 12 12 13 13 13 13 15 19 19 18 15 14 15
10 10 11 11 12 12 13 14 15 16 17 17 16 17 18 18 19 20 21 22 21 22 17 19 18 18 16 11 13 15 13 16 17 19 13 12 12 11 13 13 13 19 18 13 15 15 14
10 10 10 11 11 12 12 13 14 15 16 17 18 17 17 19 18 17 16 16 17 19 21 19 20 18 17 15 14 14 10 11 12 17 21 17 16 16 15 15 17 17 16 14 14 13 12
Height
798 796 798 796 792 790 790 787 784 782 780 779 778 779 779 779 780 780 780 781 781 782 783 784 784 782 781 778 766 765 765 763 762 762 759 753 753 751 760 756 756 766 765 765 769 774 772
796 794 795 793 790 788 787 784 781 779 777 776 775 776 777 777 778 778 779 779 781 781 782 783 782 780 781 780 765 765 765 761 758 758 755 752 750 749 752 755 759 762 765 770 771 772 773
793 792 791 791 787 786 785 781 778 776 775 773 773 774 774 775 776 777 778 779 780 782 782 782 782 781 778 770 765 765 765 764 762 759 756 756 755 754 752 764 756 761 776 772 771 771 776
791 789 789 788 785 785 782 777 776 774 772 772 772 773 773 774 775 776 777 779 781 782 782 783 781 783 777 768 767 766 764 764 764 763 762 761 759 755 758 758 765 772 768 783 770 769 771
789 786 787 786 784 783 779 775 774 772 771 771 771 772 772 773 775 776 778 780 782 782 782 781 782 780 770 767 767 765 767 763 764 764 764 763 762 760 763 772 778 772 784 778 781 766 770
787 786 785 784 783 781 776 774 773 771 771 771 772 773 773 774 776 778 780 781 782 781 781 780 779 781 765 764 765 766 766 766 763 763 764 763 761 767 766 772 799 786 776 776 782 776 776
785 783 784 782 781 779 776 774 772 771 771 772 772 773 774 775 777 779 780 781 784 782 777 768 765 766 763 765 766 764 766 766 763 764 774 763 774 780 775 774 775 774 776 778 771 775 785
782 781 782 781 780 778 775 774 772 771 772 773 774 774 775 777 778 779 780 775 769 769 776 767 766 766 767 764 767 765 766 768 769 776 764 772 782 777 771 773 777 777 783 782 776 778 788
780 779 780 780 779 776 775 774 772 772 772 773 774 775 776 778 779 780 777 774 772 769 771 771 766 766 768 764 767 768 767 763 768 770 771 786 783 775 778 781 786 777 789 794 797 784 779
777 778 778 779 778 776 773 772 772 772 772 773 775 776 777 778 782 777 774 774 773 772 779 784 774 769 768 764 776 768 768 769 768 772 768 781 779 783 784 788 791 796 789 794 795 796 802
775 776 777 778 777 775 773 770 771 772 773 775 776 777 778 780 778 775 776 775 775 774 805 776 770 764 764 771 769 772 768 767 774 776 779 789 787 787 788 795 792 795 790 794 794 796 792
773 775 776 776 775 774 772 770 770 771 773 775 775 777 779 780 779 779 776 776 776 794 807 782 768 770 773 770 771 768 770 766 767 775 774 785 779 786 792 790 789 787 789 785 787 792 811
772 774 775 774 774 774 772 769 768 770 772 774 777 778 780 780 778 778 778 777 793 796 769 783 777 770 774 781 776 774 777 781 785 797 797 788 791 788 789 793 786 787 795 813 827 815 818
771 773 774 773 773 772 769 767 767 769 772 775 778 778 779 781 781 779 780 784 801 773 772 761 770 772 783 780 783 779 781 791 785 785 786 797 817 795 792 800 805 797 801 824 840 835 823
770 772 773 772 771 771 768 766 767 769 772 776 778 779 780 780 780 781 780 794 781 773 765 772 773 783 788 784 783 783 788 797 799 793 798 800 807 796 798 797 798 803 813 805 820 835 837
768 770 771 771 771 771 769 767 767 769 773 775 777 779 778 780 780 782 785 789 772 766 763 767 783 774 787 786 789 786 791 797 801 798 790 801 811 800 799 798 799 803 803 822 820 846 841
767 769 770 770 771 771 769 767 767 769 772 775 777 777 777 779 781 780 788 779 774 769 769 772 773 781 775 785 782 789 795 802 796 800 794 800 805 811 801 809 812 809 810 813 812 825 843
766 767 769 770 770 770 769 767 767 769 772 775 773 781 777 778 785 778 779 769 779 777 774 774 771 773 779 785 789 795 800 801 801 799 807 810 812 826 811 806 805 808 814 815 837 840 836
764 767 768 770 770 770 768 767 766 769 771 772 770 771 778 778 786 783 774 775 771 777 776 779 783 778 778 787 804 795 805 807 804 807 817 813 817 830 821 818 812 814 809 815 825 841 849
763 765 768 769 769 769 768 767 766 768 770 773 764 777 775 777 768 773 778 781 784 777 779 776 780 781 786 794 790 801 810 811 810 814 823 818 813 823 835 823 815 821 815 811 817 841 838
762 764 766 768 769 769 768 767 767 768 769 773 760 767 766 780 776 767 769 771 780 789 780 779 785 784 789 801 798 802 804 814 813 824 816 815 827 820 820 817 816 818 818 815 818 816 831
761 764 766 768 769 769 768 767 767 767 769 772 764 764 764 760 766 768 778 772 774 775 782 784 786 784 786 801 799 804 801 805 809 814 814 817 834 837 836 816 820 826 818 816 812 809 810
760 763 766 768 769 769 768 767 767 767 769 764 765 764 762 778 768 771 776 772 772 775 784 775 777 786 802 801 801 801 801 803 806 814 819 825 833 841 844 838 838 840 824 812 812 809 813
759 763 766 768 769 769 768 768 767 767 768 768 767 765 772 780 772 772 770 769 772 780 785 779 781 797 804 802 806 808 812 814 812 816 816 837 839 852 854 853 852 814 806 805 812 810 811
759 763 765 767 769 769 769 768 767 767 768 769 769 768 775 796 774 770 773 773 777 782 786 796 799 797 801 803 817 829 834 842 833 821 823 822 841 856 854 843 830 815 811 818 823 825 813
759 763 766 767 769 770 770 769 768 768 769 770 770 770 772 788 782 769 773 777 786 791 800 807 806 804 804 818 830 838 829 816 827 832 832 831 835 845 858 861 848 817 811 813 816 831 820
759 763 765 768 769 771 771 771 770 770 771 772 773 772 772 779 776 775 777 783 781 791 798 805 809 812 807 828 840 831 822 812 823 836 851 853 850 850 852 855 839 815 812 815 834 838 830
760 763 766 768 770 771 772 772 772 773 773 773 775 774 775 780 782 781 780 781 783 784 802 800 810 811 817 837 835 829 837 823 820 811 837 845 850 857 850 852 846 810 814 837 829 827 833
760 764 766 768 770 771 773 773 774 775 775 775 777 777 777 778 786 788 790 790 790 789 787 798 798 803 808 819 826 827 843 841 835 824 800 822 821 825 831 829 814 813 821 825 827 832 836
Wind_Speed
10 10 13 14 12 15 18 19 21 21 18 15 14 15 15 14 14 13 11 10 11 11 11 8 8 11 3 7 1 6 7 5 4 7 14 11 13 7 8 6 7 8 8 10 9 6 4
10 10 13 12 13 15 18 20 19 18 15 13 13 13 13 13 12 11 9 11 12 11 9 7 7 8 4 12 3 1 5 8 2 10 4 5 6 7 4 6 7 9 9 10 8 6 4
10 10 11 12 12 15 18 18 16 14 12 11 11 12 12 12 11 10 12 13 12 10 8 6 7 2 9 5 2 3 3 4 6 10 9 5 8 7 5 5 2 6 7 6 7 8 8
10 9 11 11 12 15 18 16 14 12 10 9 9 9 10 10 10 12 13 12 10 8 5 7 5 2 6 0 7 4 5 4 2 4 5 3 4 9 6 6 4 8 10 9 10 7 6
10 8 10 10 12 15 16 13 11 9 7 6 6 6 8 9 12 12 10 9 6 5 6 6 4 6 7 3 7 1 5 4 1 2 1 1 7 4 2 7 8 10 9 9 9 7 2
10 8 9 9 11 14 14 11 9 6 5 4 5 5 7 9 9 9 9 7 6 5 6 3 12 11 5 1 3 2 3 4 4 4 5 5 5 6 9 9 2 10 7 4 2 8 5
11 7 8 8 10 13 12 9 7 5 4 3 4 6 7 8 9 11 10 3 5 4 13 6 12 2 4 4 3 6 4 5 6 6 10 7 9 2 13 9 6 9 6 6 7 8 3
10 7 7 6 9 11 10 8 5 3 3 4 5 6 7 8 9 10 7 6 7 5 7 1 5 4 2 5 6 5 4 6 5 11 3 4 3 7 5 7 6 5 5 4 3 5 4
9 7 6 5 8 10 10 6 3 3 4 4 5 5 7 8 7 7 11 6 4 8 5 5 2 5 1 7 4 4 4 8 9 10 7 9 10 5 4 2 8 4 4 8 7 10 9
9 7 5 5 6 9 10 5 4 5 4 4 5 4 9 11 6 9 9 2 4 6 5 7 8 5 5 3 4 1 4 4 3 2 3 8 3 2 1 2 7 7 6 5 8 9 9
9 7 5 5 5 8 10 5 5 5 7 6 5 6 9 8 10 9 2 2 4 3 4 5 5 3 7 4 9 4 3 5 5 2 3 6 4 1 2 6 6 5 6 7 8 10 11
9 8 6 5 5 8 10 5 7 7 7 6 3 6 8 4 3 2 2 2 2 4 4 6 6 8 7 4 1 4 3 3 5 3 6 8 3 6 7 4 2 7 9 11 8 9 4
10 8 6 4 4 7 9 5 7 8 8 7 7 9 4 3 3 0 1 2 4 4 7 8 10 8 10 6 6 7 6 5 3 5 6 6 5 6 5 10 7 6 8 4 2 4 2
11 9 6 3 4 7 7 3 8 9 9 9 8 5 3 2 0 1 2 5 6 4 6 8 11 9 7 7 4 2 10 8 8 10 4 8 7 4 5 6 7 5 6 2 4 4 6
12 9 6 3 3 6 6 1 9 10 12 11 9 3 2 3 1 1 4 6 2 4 8 7 11 9 4 4 1 3 11 7 6 9 6 3 6 6 5 5 7 6 5 4 3 2 2
13 10 7 3 2 4 4 1 10 12 14 15 7 5 6 3 2 2 4 7 1 6 4 10 9 5 8 8 8 7 4 2 4 8 6 4 2 3 3 3 2 4 1 2 1 2 3
14 11 7 4 1 3 4 0 10 14 17 16 3 4 4 7 3 5 6 5 1 2 5 5 4 4 2 6 3 3 4 5 4 4 5 7 3 5 5 6 7 1 2 2 3 1 2
15 11 7 4 2 2 4 2 10 15 17 9 4 4 6 9 5 6 8 2 1 7 3 2 4 2 4 4 3 4 8 7 2 3 6 4 2 1 7 6 4 3 5 4 1 4 1
15 12 8 5 2 1 4 4 9 17 18 5 4 4 4 5 5 4 3 5 6 8 8 5 2 1 2 5 3 6 8 3 4 7 4 4 1 3 8 5 4 0 3 2 4 2 5
15 11 8 5 2 2 4 5 7 15 18 3 4 3 4 5 8 11 8 7 5 4 5 1 4 4 6 5 3 6 9 4 4 8 2 3 1 1 2 6 7 7 10 8 10 4 6
16 12 9 5 2 2 4 6 5 9 12 5 4 5 7 7 7 7 11 9 10 6 4 5 5 6 6 3 5 5 10 8 5 3 2 3 1 4 7 9 8 9 11 11 12 12 9
15 11 8 6 3 2 4 5 5 5 8 4 4 2 3 4 11 9 5 7 11 7 9 9 4 7 8 6 3 7 6 5 4 4 2 3 1 3 3 5 10 13 15 13 13 13 10
16 12 9 7 4 2 4 5 5 3 6 6 2 2 2 2 4 5 5 8 9 9 2 4 6 7 11 12 12 11 10 8 5 4 4 2 1 2 3 9 10 3 3 6 8 7 9
16 13 10 8 4 3 4 6 6 3 1 4 3 3 3 2 5 8 9 6 8 9 6 7 7 8 7 10 10 10 10 8 1 5 2 4 2 2 2 4 2 4 14 11 7 6 9
16 13 11 8 5 3 5 6 7 5 5 4 2 3 3 2 7 5 9 7 11 6 10 12 9 8 9 2 2 2 2 4 1 4 3 4 3 2 1 3 9 9 3 5 5 9 9
16 13 12 9 6 4 4 6 8 7 7 5 5 5 3 5 2 6 7 11 8 9 7 4 3 4 1 2 2 2 3 2 6 6 9 4 4 2 2 2 3 3 7 5 5 8 9
16 14 13 10 7 5 4 6 7 7 7 5 4 4 2 2 3 5 6 8 8 8 5 7 5 2 3 2 2 3 2 2 4 5 4 2 2 3 5 5 6 8 6 1 3 3 8
17 15 13 11 8 6 4 5 6 5 6 6 4 6 4 3 4 5 2 3 1 5 4 8 4 1 2 3 3 2 1 3 1 3 6 7 6 4 4 3 6 1 3 2 5 7 6
16 15 13 11 8 6 4 4 5 5 4 4 3 7 9 3 4 5 7 8 7 9 3 7 1 6 4 3 2 1 2 1 3 2 6 4 6 4 9 5 7 7 4 6 7 7 5
Wind_Direction
262 279 290 299 307 308 307 308 306 299 293 286 278 270 266 265 265 260 242 220 216 216 226 244 269 285 296 236 23 57 347 334 245 214 239 234 235 226 212 164 174 96 92 83 111 151 19
264 282 292 300 307 312 309 309 306 297 291 280 271 264 260 258 255 247 223 206 207 211 227 252 274 289 268 267 96 348 350 313 280 243 225 284 351 333 127 153 139 122 134 134 152 137 134
262 279 295 300 311 312 311 312 305 298 287 278 270 260 253 245 236 220 203 199 203 212 234 260 261 321 266 308 313 340 273 355 339 341 330 43 321 267 30 62 72 142 157 170 172 153 157
264 276 293 302 313 311 314 314 306 296 293 282 262 251 240 228 212 201 194 195 202 220 238 247 234 239 265 320 311 235 312 220 292 318 22 33 283 289 330 85 217 197 234 189 156 158 150
265 275 289 303 310 312 318 315 303 303 298 273 249 230 218 203 194 188 184 195 208 222 233 218 235 221 253 166 207 127 251 307 132 230 336 274 236 218 218 205 200 211 225 162 149 185 72
259 268 288 302 310 317 324 312 303 302 296 262 223 197 191 181 178 175 182 184 214 224 213 232 268 239 225 164 47 280 191 253 215 166 203 233 229 203 212 218 342 310 195 87 110 138 200
253 260 285 304 314 323 328 310 302 305 290 232 193 183 171 176 174 179 176 172 198 187 218 255 174 260 120 87 160 214 157 184 252 214 232 209 256 23 31 22 360 339 2 328 132 84 322
247 254 280 305 311 325 330 311 295 286 249 181 169 165 171 169 177 184 207 241 29 7 168 322 65 65 10 325 143 136 186 222 206 230 211 229 195 53 24 15 341 326 343 327 50 91 301
237 249 274 297 311 323 324 312 278 248 204 161 152 170 172 168 178 201 231 348 351 352 137 146 47 121 70 288 48 111 276 251 223 244 216 61 62 61 359 39 341 237 332 29 328 325 265
228 240 261 285 311 321 317 308 245 220 181 163 153 146 167 162 173 205 226 325 350 1 170 145 200 128 189 173 125 322 263 302 262 195 120 65 58 42 348 57 350 318 40 324 293 283 280
223 231 253 278 311 322 318 299 233 201 180 182 173 148 155 179 306 199 38 355 340 313 166 175 122 86 130 256 138 113 171 228 258 137 283 112 142 12 280 30 340 11 341 303 289 277 276
217 224 246 276 316 325 319 284 216 196 185 176 158 166 166 237 282 38 27 351 331 248 146 157 156 160 153 155 68 124 132 17 353 158 77 84 61 35 8 305 302 307 275 260 256 252 262
213 216 238 266 313 321 318 278 199 190 183 174 150 140 153 3 355 119 54 200 229 279 153 148 162 183 134 127 133 164 154 128 298 164 176 161 78 108 345 296 188 293 322 284 266 194 247
211 213 227 244 308 321 327 280 190 183 182 181 178 147 104 96 26 258 266 224 252 48 170 136 145 141 150 142 123 154 152 116 42 318 214 189 152 335 34 23 347 338 322 51 318 354 338
206 211 218 222 304 321 335 252 184 177 179 175 161 151 193 277 143 319 247 223 150 257 118 165 158 172 154 158 201 115 61 71 26 15 5 318 100 104 57 2 345 356 50 5 279 28 302
201 205 214 211 295 324 338 227 178 176 175 163 176 191 173 228 214 239 243 251 18 353 165 173 185 222 172 166 170 197 169 15 93 19 335 50 139 44 85 236 104 33 19 310 5 307 300
197 199 205 212 271 322 343 206 178 175 172 171 207 212 147 172 172 222 228 223 175 180 305 215 239 194 159 154 180 136 96 110 17 69 35 359 330 116 242 33 6 5 10 342 324 53 309
194 196 201 208 241 330 0 38 175 169 168 179 197 221 156 156 191 222 233 181 300 169 242 67 344 171 144 155 142 96 125 59 75 336 52 38 69 310 70 76 29 332 339 326 23 327 310
193 192 198 205 216 2 32 45 166 173 174 200 210 138 166 179 208 227 124 125 202 169 185 175 123 32 70 143 104 116 107 86 45 35 32 355 84 271 147 160 182 356 5 347 110 109 249
188 188 193 196 188 39 40 52 149 182 197 256 244 118 148 201 273 192 195 174 150 357 106 181 121 155 165 134 120 148 122 123 68 79 336 322 33 355 322 322 339 309 304 283 266 196 242
187 185 185 182 165 65 42 51 111 179 204 216 256 179 170 189 241 232 187 182 169 170 198 184 180 179 164 153 149 149 128 132 150 147 162 1 216 355 318 313 312 308 297 290 281 272 260
182 181 177 175 158 81 47 46 69 152 185 231 302 147 183 174 206 216 123 206 190 176 170 185 211 193 162 150 191 173 154 174 144 150 131 73 112 16 258 278 346 305 297 288 280 277 282
180 178 175 171 152 89 53 47 46 117 181 254 51 305 196 319 197 200 165 228 201 120 296 228 189 129 70 66 62 55 51 49 81 143 167 77 1 47 265 352 317 315 251 350 322 322 311
178 178 175 166 151 94 52 45 45 79 141 330 16 283 92 182 199 191 201 203 165 166 169 110 108 101 105 112 69 56 56 43 208 80 14 131 69 92 281 316 351 35 325 289 319 332 329
177 176 172 164 148 100 56 46 49 65 90 68 67 321 107 154 211 191 201 180 99 112 110 84 44 92 152 157 122 99 49 46 6 44 116 153 146 122 263 271 299 297 68 33 356 311 324
176 174 170 163 149 109 67 51 53 65 91 87 65 57 81 120 253 207 190 140 146 120 109 102 74 79 204 76 98 158 184 230 153 133 39 45 79 203 139 234 260 331 56 72 302 270 35
175 173 169 162 151 128 82 56 52 67 90 81 61 69 303 96 49 331 148 172 160 173 139 142 157 135 299 98 117 181 204 280 184 177 182 96 171 198 218 257 277 285 22 16 253 13 25
174 174 172 165 155 137 98 66 51 58 82 74 61 48 13 57 75 7 10 153 54 186 136 133 122 135 80 103 153 205 174 227 175 200 163 170 160 192 201 237 261 308 342 132 345 351 33
173 173 170 166 157 139 112 75 50 47 82 80 95 73 76 63 80 60 57 43 43 11 165 173 212 142 163 128 168 151 190 347 23 222 211 201 183 190 185 215 210 110 127 86 63 70 39